Time,TemperatureF,DewpointF,PressureIn,WindDirection,WindDirectionDegrees,WindSpeedMPH,WindSpeedGustMPH,Humidity,HourlyPrecipIn,Conditions,Clouds,dailyrainin,SoftwareType,DateUTC
2013-02-01 00:03:00,-1.3,-13.2,30.06,WNW,295,4.0,5.6,56,0.00,,---,0.00,VWS V13.01,2013-02-01 06:03:00,
2013-02-01 00:08:00,-1.5,-13.4,30.06,WNW,298,4.0,5.1,56,0.00,,---,0.00,VWS V13.01,2013-02-01 06:08:00,
2013-02-01 00:13:00,-1.8,-13.7,30.06,WNW,283,4.7,4.7,56,0.00,,---,0.00,VWS V13.01,2013-02-01 06:13:00,
2013-02-01 00:18:00,-1.8,-13.7,30.06,WNW,298,5.6,5.6,56,0.00,,---,0.00,VWS V13.01,2013-02-01 06:18:00,
2013-02-01 00:23:00,-2.2,-14.0,30.06,NNW,331,4.0,6.5,56,0.00,,---,0.00,VWS V13.01,2013-02-01 06:23:00,
2013-02-01 00:29:00,-2.4,-14.2,30.06,NW,308,3.1,4.7,56,0.00,,---,0.00,VWS V13.01,2013-02-01 06:29:00,
2013-02-01 00:34:00,-2.6,-14.4,30.06,WSW,253,8.3,8.3,56,0.00,,---,0.00,VWS V13.01,2013-02-01 06:34:00,
2013-02-01 00:39:00,-3.1,-14.9,30.06,WNW,290,5.6,7.4,56,0.00,,---,0.00,VWS V13.01,2013-02-01 06:39:00,
2013-02-01 00:44:00,-3.5,-15.2,30.09,SW,223,6.9,6.9,56,0.00,,---,0.00,VWS V13.01,2013-02-01 06:44:00,
2013-02-01 00:50:00,-3.8,-15.6,30.09,West,278,5.6,5.6,56,0.00,,---,0.00,VWS V13.01,2013-02-01 06:50:00,
2013-02-01 00:55:00,-4.4,-16.1,30.09,WSW,237,6.5,6.5,56,0.00,,---,0.00,VWS V13.01,2013-02-01 06:55:00,
2013-02-01 01:00:00,-4.7,-16.4,30.09,West,265,4.7,5.1,56,0.00,,---,0.00,VWS V13.01,2013-02-01 07:00:00,
2013-02-01 01:05:00,-4.9,-16.6,30.09,West,274,5.1,5.6,56,0.00,,---,0.00,VWS V13.01,2013-02-01 07:05:00,
2013-02-01 01:10:00,-5.3,-16.9,30.09,West,279,6.0,6.0,56,0.00,,---,0.00,VWS V13.01,2013-02-01 07:10:00,
2013-02-01 01:15:00,-5.4,-17.1,30.09,West,268,4.7,4.7,56,0.00,,---,0.00,VWS V13.01,2013-02-01 07:15:00,
2013-02-01 01:20:00,-5.8,-17.4,30.09,WSW,251,4.5,4.7,56,0.00,,---,0.00,VWS V13.01,2013-02-01 07:20:00,
2013-02-01 01:26:00,-6.2,-17.8,30.09,WSW,248,4.7,4.7,56,0.00,,---,0.00,VWS V13.01,2013-02-01 07:26:00,
2013-02-01 01:31:00,-6.5,-18.1,30.09,West,278,6.0,8.7,56,0.00,,---,0.00,VWS V13.01,2013-02-01 07:31:00,
2013-02-01 01:36:00,-6.9,-18.4,30.09,West,281,3.1,5.1,56,0.00,,---,0.00,VWS V13.01,2013-02-01 07:36:00,
2013-02-01 01:41:00,-7.2,-18.8,30.09,West,267,6.5,6.5,56,0.00,,---,0.00,VWS V13.01,2013-02-01 07:41:00,
2013-02-01 01:46:00,-7.6,-19.1,30.09,WSW,248,4.5,5.1,56,0.00,,---,0.00,VWS V13.01,2013-02-01 07:46:00,
2013-02-01 01:51:00,-7.8,-19.3,30.09,NW,304,5.6,6.0,56,0.00,,---,0.00,VWS V13.01,2013-02-01 07:51:00,
2013-02-01 01:56:00,-8.0,-19.5,30.12,West,275,6.5,6.5,56,0.00,,---,0.00,VWS V13.01,2013-02-01 07:56:00,
2013-02-01 02:01:00,-8.1,-19.6,30.12,SSW,199,6.5,8.3,56,0.00,,---,0.00,VWS V13.01,2013-02-01 08:01:00,
2013-02-01 02:06:00,-8.7,-20.1,30.12,West,263,3.6,6.0,56,0.00,,---,0.00,VWS V13.01,2013-02-01 08:06:00,
2013-02-01 02:11:00,-9.0,-20.5,30.12,WSW,251,4.5,5.6,56,0.00,,---,0.00,VWS V13.01,2013-02-01 08:11:00,
2013-02-01 02:16:00,-9.4,-20.8,30.12,West,274,6.5,6.5,56,0.00,,---,0.00,VWS V13.01,2013-02-01 08:16:00,
2013-02-01 02:23:00,-9.6,-21.0,30.12,SW,224,5.1,5.1,56,0.00,,---,0.00,VWS V13.01,2013-02-01 08:23:00,
2013-02-01 02:29:00,-10.1,-21.5,30.12,SW,218,5.6,6.5,56,0.00,,---,0.00,VWS V13.01,2013-02-01 08:29:00,
2013-02-01 02:35:00,-10.5,-21.8,30.12,West,266,5.6,6.0,56,0.00,,---,0.00,VWS V13.01,2013-02-01 08:35:00,
2013-02-01 02:40:00,-10.8,-22.2,30.12,WSW,240,4.5,5.1,56,0.00,,---,0.00,VWS V13.01,2013-02-01 08:40:00,
2013-02-01 02:45:00,-11.2,-22.5,30.12,WNW,293,6.0,6.5,56,0.00,,---,0.00,VWS V13.01,2013-02-01 08:45:00,
2013-02-01 02:51:00,-11.2,-22.5,30.12,SW,223,6.0,6.9,56,0.00,,---,0.00,VWS V13.01,2013-02-01 08:51:00,
2013-02-01 02:56:00,-11.4,-22.7,30.12,NW,307,6.0,6.0,56,0.00,,---,0.00,VWS V13.01,2013-02-01 08:56:00,
2013-02-01 03:02:00,-11.7,-23.0,30.12,WSW,237,4.7,5.6,56,0.00,,---,0.00,VWS V13.01,2013-02-01 09:02:00,
2013-02-01 03:08:00,-12.1,-23.4,30.12,WNW,296,7.4,7.4,56,0.00,,---,0.00,VWS V13.01,2013-02-01 09:08:00,
2013-02-01 03:13:00,-12.3,-23.5,30.12,SSW,200,5.1,6.0,56,0.00,,---,0.00,VWS V13.01,2013-02-01 09:13:00,
2013-02-01 03:19:00,-12.5,-23.7,30.12,West,281,4.5,5.1,56,0.00,,---,0.00,VWS V13.01,2013-02-01 09:19:00,
2013-02-01 03:24:00,-12.6,-23.9,30.12,WNW,296,7.4,8.9,56,0.00,,---,0.00,VWS V13.01,2013-02-01 09:24:00,
2013-02-01 03:29:00,-12.8,-24.0,30.12,West,280,3.6,4.7,56,0.00,,---,0.00,VWS V13.01,2013-02-01 09:29:00,
2013-02-01 03:35:00,-13.0,-24.2,30.12,WSW,253,5.1,6.9,56,0.00,,---,0.00,VWS V13.01,2013-02-01 09:35:00,
2013-02-01 03:40:00,-13.2,-24.4,30.12,West,262,4.7,6.0,56,0.00,,---,0.00,VWS V13.01,2013-02-01 09:40:00,
2013-02-01 03:46:00,-13.4,-24.5,30.12,West,279,6.9,7.4,56,0.00,,---,0.00,VWS V13.01,2013-02-01 09:46:00,
2013-02-01 03:52:00,-13.5,-24.7,30.12,West,265,5.1,7.4,56,0.00,,---,0.00,VWS V13.01,2013-02-01 09:52:00,
2013-02-01 03:57:00,-13.7,-24.9,30.12,WNW,302,4.7,6.5,56,0.00,,---,0.00,VWS V13.01,2013-02-01 09:57:00,
2013-02-01 04:02:00,-13.9,-25.1,30.12,SW,217,6.5,6.5,56,0.00,,---,0.00,VWS V13.01,2013-02-01 10:02:00,
2013-02-01 04:07:00,-14.1,-25.2,30.12,West,263,5.1,5.1,56,0.00,,---,0.00,VWS V13.01,2013-02-01 10:07:00,
2013-02-01 04:13:00,-14.1,-25.2,30.15,West,260,4.5,4.5,56,0.00,,---,0.00,VWS V13.01,2013-02-01 10:13:00,
2013-02-01 04:18:00,-14.3,-25.4,30.15,NW,309,3.1,7.4,56,0.00,,---,0.00,VWS V13.01,2013-02-01 10:18:00,
2013-02-01 04:24:00,-14.4,-25.6,30.15,WSW,245,3.1,8.3,56,0.00,,---,0.00,VWS V13.01,2013-02-01 10:24:00,
2013-02-01 04:29:00,-14.4,-25.6,30.15,WSW,255,6.5,6.5,56,0.00,,---,0.00,VWS V13.01,2013-02-01 10:29:00,
2013-02-01 04:34:00,-14.6,-25.7,30.15,WSW,256,4.7,5.1,56,0.00,,---,0.00,VWS V13.01,2013-02-01 10:34:00,
2013-02-01 04:40:00,-14.8,-25.9,30.15,WSW,237,4.0,6.0,56,0.00,,---,0.00,VWS V13.01,2013-02-01 10:40:00,
2013-02-01 04:46:00,-14.8,-25.9,30.15,SW,236,4.7,4.7,56,0.00,,---,0.00,VWS V13.01,2013-02-01 10:46:00,
2013-02-01 04:51:00,-15.2,-26.2,30.15,WNW,288,4.7,5.6,56,0.00,,---,0.00,VWS V13.01,2013-02-01 10:51:00,
2013-02-01 04:57:00,-15.3,-26.4,30.15,WSW,247,4.7,6.0,56,0.00,,---,0.00,VWS V13.01,2013-02-01 10:57:00,
2013-02-01 05:02:00,-15.3,-26.4,30.15,SW,225,5.1,5.6,56,0.00,,---,0.00,VWS V13.01,2013-02-01 11:02:00,
2013-02-01 05:08:00,-15.5,-26.6,30.15,West,271,6.0,8.9,56,0.00,,---,0.00,VWS V13.01,2013-02-01 11:08:00,
2013-02-01 05:13:00,-15.7,-26.8,30.15,SW,216,3.6,5.6,56,0.00,,---,0.00,VWS V13.01,2013-02-01 11:13:00,
2013-02-01 05:18:00,-15.9,-26.9,30.15,WSW,237,5.1,5.6,56,0.00,,---,0.00,VWS V13.01,2013-02-01 11:18:00,
2013-02-01 05:24:00,-16.1,-27.1,30.15,WSW,253,4.7,7.4,56,0.00,,---,0.00,VWS V13.01,2013-02-01 11:24:00,
2013-02-01 05:29:00,-16.1,-27.1,30.15,West,281,6.5,6.5,56,0.00,,---,0.00,VWS V13.01,2013-02-01 11:29:00,
2013-02-01 05:35:00,-16.1,-27.1,30.15,SSW,203,4.0,4.5,56,0.00,,---,0.00,VWS V13.01,2013-02-01 11:35:00,
2013-02-01 05:40:00,-16.2,-27.3,30.15,SW,231,4.7,4.7,56,0.00,,---,0.00,VWS V13.01,2013-02-01 11:40:00,
2013-02-01 05:45:00,-16.4,-27.4,30.15,SW,231,4.5,5.1,56,0.00,,---,0.00,VWS V13.01,2013-02-01 11:45:00,
2013-02-01 05:50:00,-16.4,-27.4,30.15,SW,232,2.7,4.0,56,0.00,,---,0.00,VWS V13.01,2013-02-01 11:50:00,
2013-02-01 05:56:00,-16.6,-27.6,30.15,SW,229,4.7,4.7,56,0.00,,---,0.00,VWS V13.01,2013-02-01 11:56:00,
2013-02-01 06:01:00,-16.8,-27.8,30.15,WSW,237,4.0,4.0,56,0.00,,---,0.00,VWS V13.01,2013-02-01 12:01:00,
2013-02-01 06:07:00,-17.0,-28.0,30.15,WSW,240,4.0,4.5,56,0.00,,---,0.00,VWS V13.01,2013-02-01 12:07:00,
2013-02-01 06:13:00,-17.1,-28.1,30.15,SW,225,3.6,5.6,56,0.00,,---,0.00,VWS V13.01,2013-02-01 12:13:00,
2013-02-01 06:19:00,-17.1,-28.1,30.15,SW,214,4.0,5.1,56,0.00,,---,0.00,VWS V13.01,2013-02-01 12:19:00,
2013-02-01 06:25:00,-17.3,-28.3,30.15,SW,235,4.7,5.6,56,0.00,,---,0.00,VWS V13.01,2013-02-01 12:25:00,
2013-02-01 06:30:00,-17.3,-28.3,30.15,SW,223,4.5,6.5,56,0.00,,---,0.00,VWS V13.01,2013-02-01 12:30:00,
2013-02-01 06:35:00,-17.5,-28.5,30.15,West,275,5.6,6.9,56,0.00,,---,0.00,VWS V13.01,2013-02-01 12:35:00,
2013-02-01 06:40:00,-17.5,-28.5,30.15,SW,227,3.6,6.0,56,0.00,,---,0.00,VWS V13.01,2013-02-01 12:40:00,
2013-02-01 06:46:00,-17.7,-28.6,30.15,SW,234,4.0,4.5,56,0.00,,---,0.00,VWS V13.01,2013-02-01 12:46:00,
2013-02-01 06:51:00,-17.7,-28.6,30.15,WSW,255,3.6,4.7,56,0.00,,---,0.00,VWS V13.01,2013-02-01 12:51:00,
2013-02-01 06:57:00,-17.7,-28.6,30.15,WSW,241,4.5,4.7,56,0.00,,---,0.00,VWS V13.01,2013-02-01 12:57:00,
2013-02-01 07:02:00,-17.7,-28.6,30.15,SW,229,4.7,6.5,56,0.00,,---,0.00,VWS V13.01,2013-02-01 13:02:00,
2013-02-01 07:08:00,-17.7,-28.6,30.15,SW,228,4.5,4.7,56,0.00,,---,0.00,VWS V13.01,2013-02-01 13:08:00,
2013-02-01 07:14:00,-17.9,-28.8,30.15,WSW,242,4.5,4.7,56,0.00,,---,0.00,VWS V13.01,2013-02-01 13:14:00,
2013-02-01 07:19:00,-17.9,-28.8,30.15,WSW,258,4.0,4.7,56,0.00,,---,0.00,VWS V13.01,2013-02-01 13:19:00,
2013-02-01 07:25:00,-18.0,-29.0,30.15,West,261,4.5,4.5,56,0.00,,---,0.00,VWS V13.01,2013-02-01 13:25:00,
2013-02-01 07:30:00,-18.2,-29.1,30.15,WSW,253,3.1,6.0,56,0.00,,---,0.00,VWS V13.01,2013-02-01 13:30:00,
2013-02-01 07:35:00,-18.2,-29.1,30.15,West,266,5.6,5.6,56,0.00,,---,0.00,VWS V13.01,2013-02-01 13:35:00,
2013-02-01 07:41:00,-18.2,-29.1,30.15,SW,231,4.0,5.1,56,0.00,,---,0.00,VWS V13.01,2013-02-01 13:41:00,
2013-02-01 07:46:00,-18.2,-29.1,30.15,West,272,6.5,6.5,56,0.00,,---,0.00,VWS V13.01,2013-02-01 13:46:00,
2013-02-01 07:52:00,-18.2,-29.1,30.15,WSW,256,7.8,7.8,56,0.00,,---,0.00,VWS V13.01,2013-02-01 13:52:00,
2013-02-01 07:57:00,-18.0,-29.0,30.15,WSW,246,4.7,6.0,56,0.00,,---,0.00,VWS V13.01,2013-02-01 13:57:00,
2013-02-01 08:02:00,-18.0,-29.0,30.15,SW,228,4.5,5.1,56,0.00,,---,0.00,VWS V13.01,2013-02-01 14:02:00,
2013-02-01 08:07:00,-18.0,-29.0,30.15,WSW,244,5.6,8.9,56,0.00,,---,0.00,VWS V13.01,2013-02-01 14:07:00,
2013-02-01 08:13:00,-17.9,-28.8,30.15,SW,217,5.1,6.9,56,0.00,,---,0.00,VWS V13.01,2013-02-01 14:13:00,
2013-02-01 08:18:00,-17.9,-28.8,30.15,SW,217,6.5,6.5,56,0.00,,---,0.00,VWS V13.01,2013-02-01 14:18:00,
2013-02-01 08:24:00,-17.7,-28.6,30.15,WSW,249,2.7,6.0,56,0.00,,---,0.00,VWS V13.01,2013-02-01 14:24:00,
2013-02-01 08:30:00,-17.7,-28.6,30.15,SW,230,3.6,5.1,56,0.00,,---,0.00,VWS V13.01,2013-02-01 14:30:00,
2013-02-01 08:35:00,-17.5,-28.5,30.15,WSW,257,4.0,5.1,56,0.00,,---,0.00,VWS V13.01,2013-02-01 14:35:00,
2013-02-01 08:40:00,-17.5,-28.5,30.15,WNW,302,4.7,7.4,56,0.00,,---,0.00,VWS V13.01,2013-02-01 14:40:00,
2013-02-01 08:46:00,-17.3,-28.3,30.15,West,275,4.5,6.5,56,0.00,,---,0.00,VWS V13.01,2013-02-01 14:46:00,
2013-02-01 08:51:00,-17.0,-28.0,30.15,SSW,203,8.3,9.4,56,0.00,,---,0.00,VWS V13.01,2013-02-01 14:51:00,
2013-02-01 08:56:00,-16.8,-27.8,30.15,WSW,256,7.4,10.7,56,0.00,,---,0.00,VWS V13.01,2013-02-01 14:56:00,
2013-02-01 09:02:00,-16.4,-27.4,30.15,SW,225,3.6,6.9,56,0.00,,---,0.00,VWS V13.01,2013-02-01 15:02:00,
2013-02-01 09:07:00,-16.2,-27.3,30.15,SW,223,5.6,6.9,56,0.00,,---,0.00,VWS V13.01,2013-02-01 15:07:00,
2013-02-01 09:12:00,-16.1,-27.1,30.15,SW,216,5.1,5.1,56,0.00,,---,0.00,VWS V13.01,2013-02-01 15:12:00,
2013-02-01 09:18:00,-15.9,-26.9,30.15,SW,222,6.0,6.9,56,0.00,,---,0.00,VWS V13.01,2013-02-01 15:18:00,
2013-02-01 09:23:00,-15.5,-26.6,30.15,SSW,211,4.5,6.5,56,0.00,,---,0.00,VWS V13.01,2013-02-01 15:23:00,
2013-02-01 09:29:00,-15.2,-26.2,30.15,SW,227,4.5,6.0,56,0.00,,---,0.00,VWS V13.01,2013-02-01 15:29:00,
2013-02-01 09:34:00,-14.8,-25.9,30.15,West,260,4.7,6.9,56,0.00,,---,0.00,VWS V13.01,2013-02-01 15:34:00,
2013-02-01 09:39:00,-14.4,-25.6,30.15,WSW,241,5.6,6.9,56,0.00,,---,0.00,VWS V13.01,2013-02-01 15:39:00,
2013-02-01 09:44:00,-14.3,-25.4,30.15,West,261,4.0,6.0,56,0.00,,---,0.00,VWS V13.01,2013-02-01 15:44:00,
2013-02-01 09:49:00,-13.9,-25.1,30.15,SW,236,3.6,4.5,56,0.00,,---,0.00,VWS V13.01,2013-02-01 15:49:00,
2013-02-01 09:54:00,-13.5,-24.7,30.15,WNW,285,5.6,6.0,56,0.00,,---,0.00,VWS V13.01,2013-02-01 15:54:00,
2013-02-01 09:59:00,-13.2,-24.4,30.15,West,259,5.1,7.4,56,0.00,,---,0.00,VWS V13.01,2013-02-01 15:59:00,
2013-02-01 10:04:00,-13.0,-24.2,30.15,WSW,248,6.9,7.4,56,0.00,,---,0.00,VWS V13.01,2013-02-01 16:04:00,
2013-02-01 10:09:00,-13.0,-24.2,30.15,West,272,4.7,5.6,56,0.00,,---,0.00,VWS V13.01,2013-02-01 16:09:00,
2013-02-01 10:15:00,-12.8,-24.0,30.15,West,260,4.5,4.7,56,0.00,,---,0.00,VWS V13.01,2013-02-01 16:15:00,
2013-02-01 10:20:00,-12.1,-23.4,30.15,SW,226,6.5,6.5,56,0.00,,---,0.00,VWS V13.01,2013-02-01 16:20:00,
2013-02-01 10:25:00,-11.4,-22.7,30.15,WNW,290,8.9,8.9,56,0.00,,---,0.00,VWS V13.01,2013-02-01 16:25:00,
2013-02-01 10:30:00,-11.2,-22.5,30.15,North,11,5.6,8.3,56,0.00,,---,0.00,VWS V13.01,2013-02-01 16:30:00,
2013-02-01 10:35:00,-10.8,-22.2,30.15,West,281,7.4,7.4,56,0.00,,---,0.00,VWS V13.01,2013-02-01 16:35:00,
2013-02-01 10:40:00,-10.7,-22.0,30.15,NW,306,4.7,6.0,56,0.00,,---,0.00,VWS V13.01,2013-02-01 16:40:00,
2013-02-01 10:45:00,-10.3,-21.7,30.15,NW,323,6.5,6.5,56,0.00,,---,0.00,VWS V13.01,2013-02-01 16:45:00,
2013-02-01 10:50:00,-9.9,-21.3,30.15,West,266,4.7,5.6,56,0.00,,---,0.00,VWS V13.01,2013-02-01 16:50:00,
2013-02-01 10:55:00,-9.8,-21.2,30.15,SSW,198,5.1,6.5,56,0.00,,---,0.00,VWS V13.01,2013-02-01 16:55:00,
2013-02-01 11:01:00,-9.2,-20.6,30.15,West,280,3.6,4.5,56,0.00,,---,0.00,VWS V13.01,2013-02-01 17:01:00,
2013-02-01 11:06:00,-8.3,-19.8,30.15,WSW,250,7.4,7.4,56,0.00,,---,0.00,VWS V13.01,2013-02-01 17:06:00,
2013-02-01 11:12:00,-8.0,-19.5,30.15,SW,219,5.6,8.7,56,0.00,,---,0.00,VWS V13.01,2013-02-01 17:12:00,
2013-02-01 11:18:00,-7.8,-19.3,30.15,SW,219,5.6,6.5,56,0.00,,---,0.00,VWS V13.01,2013-02-01 17:18:00,
2013-02-01 11:23:00,-7.8,-19.3,30.15,WSW,237,6.0,6.0,56,0.00,,---,0.00,VWS V13.01,2013-02-01 17:23:00,
2013-02-01 11:29:00,-7.6,-19.1,30.15,WSW,244,4.0,6.9,56,0.00,,---,0.00,VWS V13.01,2013-02-01 17:29:00,
2013-02-01 11:34:00,-7.1,-18.6,30.15,SW,215,3.6,3.6,56,0.00,,---,0.00,VWS V13.01,2013-02-01 17:34:00,
2013-02-01 11:39:00,-6.5,-18.1,30.15,WNW,301,3.6,4.7,56,0.00,,---,0.00,VWS V13.01,2013-02-01 17:39:00,
2013-02-01 11:44:00,-5.8,-17.4,30.12,SW,230,3.1,4.0,56,0.00,,---,0.00,VWS V13.01,2013-02-01 17:44:00,
2013-02-01 11:50:00,-5.1,-16.8,30.12,WNW,298,4.0,4.0,56,0.00,,---,0.00,VWS V13.01,2013-02-01 17:50:00,
2013-02-01 11:55:00,-5.3,-16.9,30.12,WSW,240,0.0,0.0,56,0.00,,---,0.00,VWS V13.01,2013-02-01 17:55:00,
2013-02-01 12:01:00,-4.7,-16.4,30.12,WSW,241,2.7,3.6,56,0.00,,---,0.00,VWS V13.01,2013-02-01 18:01:00,
2013-02-01 12:06:00,-4.2,-15.9,30.12,SSW,205,5.1,5.1,56,0.00,,---,0.00,VWS V13.01,2013-02-01 18:06:00,
2013-02-01 12:12:00,-3.8,-15.6,30.12,South,183,5.6,5.6,56,0.00,,---,0.00,VWS V13.01,2013-02-01 18:12:00,
2013-02-01 12:18:00,-4.0,-15.7,30.12,SW,233,8.7,8.7,56,0.00,,---,0.00,VWS V13.01,2013-02-01 18:18:00,
2013-02-01 12:23:00,-4.4,-16.1,30.12,WSW,249,3.6,4.7,56,0.00,,---,0.00,VWS V13.01,2013-02-01 18:23:00,
2013-02-01 12:28:00,-3.6,-15.4,30.12,WSW,256,5.6,7.8,56,0.00,,---,0.00,VWS V13.01,2013-02-01 18:28:00,
2013-02-01 12:34:00,-3.3,-15.1,30.12,West,265,4.5,7.4,56,0.00,,---,0.00,VWS V13.01,2013-02-01 18:34:00,
2013-02-01 12:40:00,-2.9,-14.7,30.12,SW,229,8.3,8.3,56,0.00,,---,0.00,VWS V13.01,2013-02-01 18:40:00,
2013-02-01 12:45:00,-3.5,-15.2,30.12,West,278,6.0,6.0,56,0.00,,---,0.00,VWS V13.01,2013-02-01 18:45:00,
2013-02-01 12:50:00,-3.3,-15.1,30.12,WNW,295,5.1,7.4,56,0.00,,---,0.00,VWS V13.01,2013-02-01 18:50:00,
2013-02-01 12:56:00,-3.3,-15.1,30.12,SW,220,5.6,6.5,56,0.00,,---,0.00,VWS V13.01,2013-02-01 18:56:00,
2013-02-01 13:01:00,-3.1,-14.9,30.12,WSW,241,4.0,6.0,56,0.00,,---,0.00,VWS V13.01,2013-02-01 19:01:00,
2013-02-01 13:07:00,-2.9,-14.7,30.12,West,269,4.0,6.9,56,0.00,,---,0.00,VWS V13.01,2013-02-01 19:07:00,
2013-02-01 13:12:00,-2.7,-14.5,30.09,SW,227,8.3,8.3,56,0.00,,---,0.00,VWS V13.01,2013-02-01 19:12:00,
2013-02-01 13:18:00,-2.4,-14.2,30.09,WSW,243,3.6,5.1,56,0.00,,---,0.00,VWS V13.01,2013-02-01 19:18:00,
2013-02-01 13:24:00,-1.3,-13.2,30.09,WSW,255,3.1,5.6,56,0.00,,---,0.00,VWS V13.01,2013-02-01 19:24:00,
2013-02-01 13:30:00,-0.9,-12.9,30.09,West,261,4.0,4.7,56,0.00,,---,0.00,VWS V13.01,2013-02-01 19:30:00,
2013-02-01 13:35:00,0.1,-11.8,30.09,SW,226,6.5,6.9,56,0.00,,---,0.00,VWS V13.01,2013-02-01 19:35:00,
2013-02-01 13:41:00,0.9,-11.1,30.09,West,271,3.1,3.6,56,0.00,,---,0.00,VWS V13.01,2013-02-01 19:41:00,
2013-02-01 13:46:00,1.6,-10.5,30.09,SW,236,4.7,4.7,56,0.00,,---,0.00,VWS V13.01,2013-02-01 19:46:00,
2013-02-01 13:51:00,1.8,-10.3,30.09,WSW,244,5.1,6.9,56,0.00,,---,0.00,VWS V13.01,2013-02-01 19:51:00,
2013-02-01 13:56:00,1.4,-10.6,30.09,West,279,6.5,7.4,56,0.00,,---,0.00,VWS V13.01,2013-02-01 19:56:00,
2013-02-01 14:01:00,1.2,-10.8,30.09,SW,232,7.4,7.4,56,0.00,,---,0.00,VWS V13.01,2013-02-01 20:01:00,
2013-02-01 14:06:00,1.2,-10.8,30.09,NW,307,3.1,4.0,56,0.00,,---,0.00,VWS V13.01,2013-02-01 20:06:00,
2013-02-01 14:12:00,1.2,-10.8,30.06,SSW,201,5.6,7.8,56,0.00,,---,0.00,VWS V13.01,2013-02-01 20:12:00,
2013-02-01 14:17:00,1.2,-10.8,30.06,SW,231,5.1,5.1,56,0.00,,---,0.00,VWS V13.01,2013-02-01 20:17:00,
2013-02-01 14:22:00,0.5,-11.5,30.06,SW,220,6.0,6.0,56,0.00,,---,0.00,VWS V13.01,2013-02-01 20:22:00,
2013-02-01 14:27:00,0.7,-11.3,30.06,South,187,4.7,6.9,56,0.00,,---,0.00,VWS V13.01,2013-02-01 20:27:00,
2013-02-01 14:33:00,0.9,-11.1,30.06,WNW,286,4.5,4.5,56,0.00,,---,0.00,VWS V13.01,2013-02-01 20:33:00,
2013-02-01 14:39:00,1.2,-10.8,30.06,WSW,258,5.6,6.5,56,0.00,,---,0.00,VWS V13.01,2013-02-01 20:39:00,
2013-02-01 14:45:00,0.7,-11.3,30.06,West,263,4.5,6.0,56,0.00,,---,0.00,VWS V13.01,2013-02-01 20:45:00,
2013-02-01 14:50:00,0.3,-11.7,30.06,WSW,246,5.1,6.0,56,0.00,,---,0.00,VWS V13.01,2013-02-01 20:50:00,
2013-02-01 14:56:00,-0.2,-12.2,30.06,SSW,211,6.5,7.4,56,0.00,,---,0.00,VWS V13.01,2013-02-01 20:56:00,
2013-02-01 15:01:00,-0.8,-12.7,30.06,SSW,207,6.0,8.7,56,0.00,,---,0.00,VWS V13.01,2013-02-01 21:01:00,
2013-02-01 15:07:00,-0.9,-12.9,30.06,SW,222,6.0,7.4,56,0.00,,---,0.00,VWS V13.01,2013-02-01 21:07:00,
2013-02-01 15:13:00,-0.8,-12.7,30.06,WSW,255,5.1,6.0,56,0.00,,---,0.00,VWS V13.01,2013-02-01 21:13:00,
2013-02-01 15:18:00,-0.9,-12.9,30.06,SSW,206,4.5,6.5,56,0.00,,---,0.00,VWS V13.01,2013-02-01 21:18:00,
2013-02-01 15:24:00,-1.5,-13.4,30.06,SSW,197,5.1,5.6,56,0.00,,---,0.00,VWS V13.01,2013-02-01 21:24:00,
2013-02-01 15:29:00,-2.0,-13.9,30.06,SSW,192,4.0,5.6,56,0.00,,---,0.00,VWS V13.01,2013-02-01 21:29:00,
2013-02-01 15:34:00,-2.4,-14.2,30.06,SW,215,5.1,5.6,56,0.00,,---,0.00,VWS V13.01,2013-02-01 21:34:00,
2013-02-01 15:39:00,-2.6,-14.4,30.06,SW,223,4.0,6.0,56,0.00,,---,0.00,VWS V13.01,2013-02-01 21:39:00,
2013-02-01 15:44:00,-2.6,-14.4,30.06,SSW,196,6.0,6.0,56,0.00,,---,0.00,VWS V13.01,2013-02-01 21:44:00,
2013-02-01 15:50:00,-2.6,-14.4,30.06,SW,221,4.7,4.7,56,0.00,,---,0.00,VWS V13.01,2013-02-01 21:50:00,
2013-02-01 15:56:00,-2.7,-14.5,30.06,SW,221,5.1,6.9,56,0.00,,---,0.00,VWS V13.01,2013-02-01 21:56:00,
2013-02-01 16:02:00,-2.7,-14.5,30.06,SSW,206,5.6,6.0,56,0.00,,---,0.00,VWS V13.01,2013-02-01 22:02:00,
2013-02-01 16:08:00,-2.7,-14.5,30.06,WSW,247,4.7,4.7,56,0.00,,---,0.00,VWS V13.01,2013-02-01 22:08:00,
2013-02-01 16:13:00,-2.6,-14.4,30.06,SSW,212,5.1,6.0,56,0.00,,---,0.00,VWS V13.01,2013-02-01 22:13:00,
2013-02-01 16:19:00,-2.6,-14.4,30.06,SW,225,5.1,6.0,56,0.00,,---,0.00,VWS V13.01,2013-02-01 22:19:00,
2013-02-01 16:25:00,-2.6,-14.4,30.06,SW,224,4.7,5.1,56,0.00,,---,0.00,VWS V13.01,2013-02-01 22:25:00,
2013-02-01 16:31:00,-2.6,-14.4,30.06,SW,221,6.5,6.5,56,0.00,,---,0.00,VWS V13.01,2013-02-01 22:31:00,
2013-02-01 16:36:00,-2.6,-14.4,30.06,SSW,200,3.6,5.1,56,0.00,,---,0.00,VWS V13.01,2013-02-01 22:36:00,
2013-02-01 16:42:00,-2.6,-14.4,30.06,WSW,240,5.1,5.1,56,0.00,,---,0.00,VWS V13.01,2013-02-01 22:42:00,
2013-02-01 16:47:00,-2.6,-14.4,30.06,SSW,213,5.1,5.1,56,0.00,,---,0.00,VWS V13.01,2013-02-01 22:47:00,
2013-02-01 16:53:00,-2.6,-14.4,30.06,SW,223,4.0,4.7,56,0.00,,---,0.00,VWS V13.01,2013-02-01 22:53:00,
2013-02-01 16:58:00,-2.6,-14.4,30.06,SW,229,5.6,5.6,56,0.00,,---,0.00,VWS V13.01,2013-02-01 22:58:00,
2013-02-01 17:04:00,-2.7,-14.5,30.06,SW,229,5.1,6.5,56,0.00,,---,0.00,VWS V13.01,2013-02-01 23:04:00,
2013-02-01 17:10:00,-2.7,-14.5,30.06,SW,230,4.0,4.0,56,0.00,,---,0.00,VWS V13.01,2013-02-01 23:10:00,
2013-02-01 17:15:00,-2.7,-14.5,30.06,SW,228,6.9,7.8,56,0.00,,---,0.00,VWS V13.01,2013-02-01 23:15:00,
2013-02-01 17:21:00,-2.6,-14.4,30.06,West,266,4.7,5.1,56,0.00,,---,0.00,VWS V13.01,2013-02-01 23:21:00,
2013-02-01 17:27:00,-2.6,-14.4,30.06,SW,219,6.0,6.0,56,0.00,,---,0.00,VWS V13.01,2013-02-01 23:27:00,
2013-02-01 17:32:00,-2.6,-14.4,30.06,SSW,209,4.7,6.5,56,0.00,,---,0.00,VWS V13.01,2013-02-01 23:32:00,
2013-02-01 17:37:00,-2.6,-14.4,30.06,SW,227,4.7,5.6,56,0.00,,---,0.00,VWS V13.01,2013-02-01 23:37:00,
2013-02-01 17:43:00,-2.6,-14.4,30.06,WNW,293,5.1,7.8,56,0.00,,---,0.00,VWS V13.01,2013-02-01 23:43:00,
2013-02-01 17:48:00,-2.7,-14.5,30.06,West,263,4.7,4.7,56,0.00,,---,0.00,VWS V13.01,2013-02-01 23:48:00,
2013-02-01 17:54:00,-2.7,-14.5,30.06,SW,221,4.0,4.5,56,0.00,,---,0.00,VWS V13.01,2013-02-01 23:54:00,
2013-02-01 18:00:00,-2.7,-14.5,30.06,SSW,211,6.0,6.0,56,0.00,,---,0.00,VWS V13.01,2013-02-02 00:00:00,
2013-02-01 18:05:00,-2.7,-14.5,30.06,SW,229,4.0,4.5,56,0.00,,---,0.00,VWS V13.01,2013-02-02 00:05:00,
2013-02-01 18:11:00,-2.7,-14.5,30.06,SW,221,5.1,5.1,56,0.00,,---,0.00,VWS V13.01,2013-02-02 00:11:00,
2013-02-01 18:16:00,-2.7,-14.5,30.06,SW,216,4.0,6.0,56,0.00,,---,0.00,VWS V13.01,2013-02-02 00:16:00,
2013-02-01 18:22:00,-2.7,-14.5,30.06,SW,231,4.5,4.7,56,0.00,,---,0.00,VWS V13.01,2013-02-02 00:22:00,
2013-02-01 18:27:00,-2.6,-14.4,30.06,SSW,211,3.1,4.5,56,0.00,,---,0.00,VWS V13.01,2013-02-02 00:27:00,
2013-02-01 18:32:00,-2.6,-14.4,30.06,SW,227,4.5,6.0,56,0.00,,---,0.00,VWS V13.01,2013-02-02 00:32:00,
2013-02-01 18:37:00,-2.6,-14.4,30.06,SW,229,5.6,5.6,56,0.00,,---,0.00,VWS V13.01,2013-02-02 00:37:00,
2013-02-01 18:43:00,-2.6,-14.4,30.06,SW,231,4.0,5.6,56,0.00,,---,0.00,VWS V13.01,2013-02-02 00:43:00,
2013-02-01 18:48:00,-2.6,-14.4,30.06,SW,223,6.0,6.0,56,0.00,,---,0.00,VWS V13.01,2013-02-02 00:48:00,
2013-02-01 18:55:00,-2.6,-14.4,30.06,SW,226,4.0,4.5,56,0.00,,---,0.00,VWS V13.01,2013-02-02 00:55:00,
2013-02-01 19:00:00,-2.6,-14.4,30.06,SW,228,3.6,4.0,56,0.00,,---,0.00,VWS V13.01,2013-02-02 01:00:00,
2013-02-01 19:05:00,-2.6,-14.4,30.06,SW,224,4.7,4.7,56,0.00,,---,0.00,VWS V13.01,2013-02-02 01:05:00,
2013-02-01 19:10:00,-2.6,-14.4,30.06,WSW,241,4.7,6.0,56,0.00,,---,0.00,VWS V13.01,2013-02-02 01:10:00,
2013-02-01 19:15:00,-2.6,-14.4,30.06,WSW,252,3.6,5.6,56,0.00,,---,0.00,VWS V13.01,2013-02-02 01:15:00,
2013-02-01 19:20:00,-2.6,-14.4,30.06,SW,235,5.1,6.5,56,0.00,,---,0.00,VWS V13.01,2013-02-02 01:20:00,
2013-02-01 19:25:00,-2.6,-14.4,30.06,WSW,252,3.6,5.1,56,0.00,,---,0.00,VWS V13.01,2013-02-02 01:25:00,
2013-02-01 19:30:00,-2.6,-14.4,30.06,WSW,253,4.5,4.7,56,0.00,,---,0.00,VWS V13.01,2013-02-02 01:30:00,
2013-02-01 19:35:00,-2.6,-14.4,30.06,SW,214,5.1,5.1,56,0.00,,---,0.00,VWS V13.01,2013-02-02 01:35:00,
2013-02-01 19:40:00,-2.6,-14.4,30.06,SW,221,4.0,4.5,56,0.00,,---,0.00,VWS V13.01,2013-02-02 01:40:00,
2013-02-01 19:45:00,-2.6,-14.4,30.06,WSW,241,3.1,4.0,56,0.00,,---,0.00,VWS V13.01,2013-02-02 01:45:00,
2013-02-01 19:50:00,-2.6,-14.4,30.06,WSW,250,3.1,4.0,56,0.00,,---,0.00,VWS V13.01,2013-02-02 01:50:00,
2013-02-01 19:55:00,-2.6,-14.4,30.06,WSW,250,2.7,3.1,56,0.00,,---,0.00,VWS V13.01,2013-02-02 01:55:00,
2013-02-01 20:00:00,-2.6,-14.4,30.06,WSW,250,4.0,4.5,56,0.00,,---,0.00,VWS V13.01,2013-02-02 02:00:00,
2013-02-01 20:06:00,-2.6,-14.4,30.06,SW,224,3.6,4.0,56,0.00,,---,0.00,VWS V13.01,2013-02-02 02:06:00,
2013-02-01 20:11:00,-2.6,-14.4,30.06,SW,224,4.0,4.0,56,0.00,,---,0.00,VWS V13.01,2013-02-02 02:11:00,
2013-02-01 20:16:00,-2.6,-14.4,30.06,SW,219,3.6,3.6,56,0.00,,---,0.00,VWS V13.01,2013-02-02 02:16:00,
2013-02-01 20:21:00,-2.6,-14.4,30.06,SW,221,3.6,4.0,56,0.00,,---,0.00,VWS V13.01,2013-02-02 02:21:00,
2013-02-01 20:26:00,-2.6,-14.4,30.06,SSW,212,5.6,5.6,56,0.00,,---,0.00,VWS V13.01,2013-02-02 02:26:00,
2013-02-01 20:31:00,-2.6,-14.4,30.06,SSW,213,3.1,3.6,56,0.00,,---,0.00,VWS V13.01,2013-02-02 02:31:00,
2013-02-01 20:36:00,-2.6,-14.4,30.06,SW,234,4.5,4.7,56,0.00,,---,0.00,VWS V13.01,2013-02-02 02:36:00,
2013-02-01 20:41:00,-2.6,-14.4,30.06,SW,225,4.0,4.5,56,0.00,,---,0.00,VWS V13.01,2013-02-02 02:41:00,
2013-02-01 20:46:00,-2.6,-14.4,30.06,SW,221,4.5,5.1,56,0.00,,---,0.00,VWS V13.01,2013-02-02 02:46:00,
2013-02-01 20:52:00,-2.6,-14.4,30.06,SSW,201,4.5,5.1,56,0.00,,---,0.00,VWS V13.01,2013-02-02 02:52:00,
2013-02-01 20:57:00,-2.6,-14.4,30.06,SSW,210,3.6,4.5,56,0.00,,---,0.00,VWS V13.01,2013-02-02 02:57:00,
2013-02-01 21:02:00,-2.6,-14.4,30.06,SSW,210,4.0,4.5,56,0.00,,---,0.00,VWS V13.01,2013-02-02 03:02:00,
2013-02-01 21:07:00,-2.6,-14.4,30.06,SW,225,0.0,4.0,56,0.00,,---,0.00,VWS V13.01,2013-02-02 03:07:00,
2013-02-01 21:12:00,-2.6,-14.4,30.06,SW,216,3.1,4.5,56,0.00,,---,0.00,VWS V13.01,2013-02-02 03:12:00,
2013-02-01 21:17:00,-2.6,-14.4,30.06,SW,216,4.5,4.5,56,0.00,,---,0.00,VWS V13.01,2013-02-02 03:17:00,
2013-02-01 21:22:00,-2.6,-14.4,30.06,SW,219,4.7,4.7,56,0.00,,---,0.00,VWS V13.01,2013-02-02 03:22:00,
2013-02-01 21:27:00,-2.6,-14.4,30.06,SW,214,3.6,4.0,56,0.00,,---,0.00,VWS V13.01,2013-02-02 03:27:00,
2013-02-01 21:32:00,-2.6,-14.4,30.06,SSW,204,4.0,4.5,56,0.00,,---,0.00,VWS V13.01,2013-02-02 03:32:00,
2013-02-01 21:37:00,-2.6,-14.4,30.06,SSW,213,3.6,4.5,56,0.00,,---,0.00,VWS V13.01,2013-02-02 03:37:00,
2013-02-01 21:42:00,-2.6,-14.4,30.06,SW,225,5.6,5.6,56,0.00,,---,0.00,VWS V13.01,2013-02-02 03:42:00,
2013-02-01 21:47:00,-2.6,-14.4,30.06,SSW,210,4.7,6.0,56,0.00,,---,0.00,VWS V13.01,2013-02-02 03:47:00,
2013-02-01 21:52:00,-2.6,-14.4,30.06,SW,235,6.0,6.5,56,0.00,,---,0.00,VWS V13.01,2013-02-02 03:52:00,
2013-02-01 21:57:00,-2.7,-14.5,30.06,SW,224,4.0,5.1,56,0.00,,---,0.00,VWS V13.01,2013-02-02 03:57:00,
2013-02-01 22:02:00,-2.7,-14.5,30.06,SSW,199,6.5,6.5,56,0.00,,---,0.00,VWS V13.01,2013-02-02 04:02:00,
2013-02-01 22:07:00,-2.7,-14.5,30.06,SSW,208,5.1,5.6,56,0.00,,---,0.00,VWS V13.01,2013-02-02 04:07:00,
2013-02-01 22:12:00,-2.7,-14.5,30.06,SSW,211,4.5,5.1,56,0.00,,---,0.00,VWS V13.01,2013-02-02 04:12:00,
2013-02-01 22:17:00,-2.7,-14.5,30.06,SW,231,5.1,7.4,56,0.00,,---,0.00,VWS V13.01,2013-02-02 04:17:00,
2013-02-01 22:22:00,-2.7,-14.5,30.06,WSW,249,4.0,4.0,56,0.00,,---,0.00,VWS V13.01,2013-02-02 04:22:00,
2013-02-01 22:27:00,-2.7,-14.5,30.06,SW,231,5.6,6.9,56,0.00,,---,0.00,VWS V13.01,2013-02-02 04:27:00,
2013-02-01 22:32:00,-2.7,-14.5,30.06,SW,217,4.5,6.5,56,0.00,,---,0.00,VWS V13.01,2013-02-02 04:32:00,
2013-02-01 22:37:00,-2.7,-14.5,30.06,SW,236,5.1,5.1,56,0.00,,---,0.00,VWS V13.01,2013-02-02 04:37:00,
2013-02-01 22:42:00,-2.7,-14.5,30.06,WSW,238,6.5,6.9,56,0.00,,---,0.00,VWS V13.01,2013-02-02 04:42:00,
2013-02-01 22:47:00,-2.9,-14.7,30.06,SW,215,4.7,4.7,56,0.00,,---,0.00,VWS V13.01,2013-02-02 04:47:00,
2013-02-01 22:52:00,-2.9,-14.7,30.06,SW,221,4.0,4.7,56,0.00,,---,0.00,VWS V13.01,2013-02-02 04:52:00,
2013-02-01 22:57:00,-2.9,-14.7,30.06,WSW,241,4.0,4.5,56,0.00,,---,0.00,VWS V13.01,2013-02-02 04:57:00,
2013-02-01 23:00:00,-2.9,-14.7,30.06,SSW,202,4.5,4.5,56,0.00,,---,0.00,VWS V13.01,2013-02-02 05:00:00,
2013-02-01 23:01:00,-2.9,-14.7,30.06,SW,227,3.1,4.7,56,0.00,,---,0.00,VWS V13.01,2013-02-02 05:01:00,
2013-02-01 23:06:00,-2.9,-14.7,30.06,SW,224,4.5,4.5,56,0.00,,---,0.00,VWS V13.01,2013-02-02 05:06:00,
2013-02-01 23:10:00,-2.9,-14.7,30.06,WSW,257,4.5,4.5,56,0.00,,---,0.00,VWS V13.01,2013-02-02 05:10:00,
2013-02-01 23:15:00,-2.9,-14.7,30.06,WSW,238,4.0,4.7,56,0.00,,---,0.00,VWS V13.01,2013-02-02 05:15:00,
2013-02-01 23:17:00,-2.9,-14.7,30.06,SW,220,4.0,5.1,56,0.00,,---,0.00,VWS V13.01,2013-02-02 05:17:00,
2013-02-01 23:22:00,-3.1,-14.9,30.06,SW,233,5.1,5.1,56,0.00,,---,0.00,VWS V13.01,2013-02-02 05:22:00,
2013-02-01 23:27:00,-3.1,-14.9,30.06,SW,220,3.6,4.0,56,0.00,,---,0.00,VWS V13.01,2013-02-02 05:27:00,
2013-02-01 23:33:00,-3.1,-14.9,30.06,SW,220,3.1,3.1,56,0.00,,---,0.00,VWS V13.01,2013-02-02 05:33:00,
2013-02-01 23:39:00,-3.1,-14.9,30.06,SW,236,4.0,4.0,56,0.00,,---,0.00,VWS V13.01,2013-02-02 05:39:00,
2013-02-01 23:44:00,-3.1,-14.9,30.06,SSW,209,4.7,5.1,56,0.00,,---,0.00,VWS V13.01,2013-02-02 05:44:00,
2013-02-01 23:50:00,-3.1,-14.9,30.06,SSW,209,4.0,4.0,56,0.00,,---,0.00,VWS V13.01,2013-02-02 05:50:00,
2013-02-01 23:56:00,-3.1,-14.9,30.06,WSW,250,3.6,3.6,56,0.00,,---,0.00,VWS V13.01,2013-02-02 05:56:00,